Caldwell, NJ

1:11 AM EDT on September 20, 2019 (GMT -0400)
Essex County

Weather History for KCDW - July, 2019

Change the Weather History Date:

Friday, July 12, 2019

  Actual Average Record
Temperature  
Mean Temperature 80 °F -  
Max Temperature 90 °F 84 °F 98 °F (1988)
Min Temperature 72 °F 61 °F 46 °F (1978)
Cooling Degree Days 16    
Growing Degree Days 30 (Base 50)    
Moisture  
Dew Point 68 °F    
Average Humidity 74    
Maximum Humidity 97    
Minimum Humidity 39    
Precipitation  
Precipitation 0.00 in - - ()
Sea Level Pressure  
Sea Level Pressure 29.77 in    
Wind  
Wind Speed 3 mph (NW)    
Max Wind Speed 15 mph    
Max Gust Speed 23 mph    
Visibility 9 miles    
Events      
Averages and records for this station are not official NWS values.
T = Trace of Precipitation, MM = Missing Value Source: NWS Daily Summary

Daily Weather History Graph

Daily Weather History Graph

Search for Another Location

Airport or City:

Astronomy

Jul. 12, 2019 Rise Set
Actual Time 5:35 AM EDT 8:29 PM EDT
Civil Twilight 5:03 AM EDT 9:01 PM EDT
Nautical Twilight 4:21 AM EDT 9:43 PM EDT
Astronomical Twilight 3:33 AM EDT 10:30 PM EDT
Moon 4:45 PM EDT (7/12) 2:18 AM EDT (7/12)
Length of Visible Light 15h 58m
Length of Day
14h 53m
Waxing Gibbous, 82% of the Moon is Illuminated
Jul 12
Waxing Gibbous
Jul 16
Full
Jul 24
Last Quarter
Jul 31
New
Aug 7
First Quarter

Hourly Weather History & Observations

Time (EDT) Temp. Heat Index Dew Point Humidity Pressure Visibility Wind Dir Wind Speed Gust Speed Precip Events Conditions
12:53 AM 73.0 °F - 71.1 °F 93% 29.76 in 9.0 mi Calm Calm - N/A   Mostly Cloudy
1:02 AM 73.0 °F - 72.0 °F 96% 29.75 in 8.0 mi Calm Calm - N/A   Scattered Clouds
1:53 AM 73.0 °F - 72.0 °F 96% 29.76 in 5.0 mi Calm Calm - N/A   Scattered Clouds
2:33 AM 73.0 °F - 72.0 °F 96% 29.74 in 6.0 mi Calm Calm - N/A   Mostly Cloudy
2:50 AM 73.4 °F - 71.6 °F 94% 29.74 in 5.0 mi Calm Calm - N/A   Overcast
2:53 AM 73.0 °F - 72.0 °F 96% 29.75 in 5.0 mi Calm Calm - N/A   Overcast
3:53 AM 73.0 °F - 72.0 °F 96% 29.73 in 6.0 mi Calm Calm - N/A   Mostly Cloudy
4:02 AM 73.0 °F - 72.0 °F 96% 29.72 in 6.0 mi Calm Calm - N/A   Partly Cloudy
4:49 AM 73.4 °F - 71.6 °F 94% 29.72 in 7.0 mi Calm Calm - N/A   Mostly Cloudy
4:53 AM 73.0 °F - 71.1 °F 93% 29.74 in 8.0 mi Calm Calm - N/A   Mostly Cloudy
5:16 AM 72.0 °F - 71.1 °F 97% 29.72 in 10.0 mi Calm Calm - N/A   Scattered Clouds
5:53 AM 72.0 °F - 71.1 °F 97% 29.74 in 9.0 mi Calm Calm - N/A   Clear
6:53 AM 73.0 °F - 71.1 °F 93% 29.75 in 10.0 mi Calm Calm - N/A   Partly Cloudy
7:53 AM 75.0 °F - 72.0 °F 90% 29.75 in 10.0 mi Variable 4.6 mph - N/A   Clear
8:53 AM 79.0 °F - 71.1 °F 77% 29.76 in 10.0 mi WNW 8.1 mph - N/A   Clear
9:53 AM 80.1 °F 83.6 °F 71.1 °F 74% 29.77 in 10.0 mi West 9.2 mph - N/A   Scattered Clouds
10:01 AM 80.1 °F 83.2 °F 70.0 °F 71% 29.76 in 10.0 mi NW 8.1 mph - N/A   Mostly Cloudy
10:53 AM 82.0 °F 85.9 °F 70.0 °F 67% 29.77 in 10.0 mi Variable 6.9 mph - N/A   Overcast
11:53 AM 84.0 °F 88.4 °F 70.0 °F 63% 29.76 in 10.0 mi WNW 5.8 mph - N/A   Mostly Cloudy
12:53 PM 86.0 °F 89.4 °F 68.0 °F 55% 29.75 in 10.0 mi NW 8.1 mph - N/A   Mostly Cloudy
1:53 PM 89.1 °F 91.0 °F 64.9 °F 45% 29.74 in 10.0 mi WNW 12.7 mph 18.4 mph N/A   Partly Cloudy
2:53 PM 89.1 °F 91.0 °F 64.9 °F 45% 29.75 in 10.0 mi NW 11.5 mph 18.4 mph N/A   Scattered Clouds
3:53 PM 88.0 °F 88.7 °F 63.0 °F 43% 29.75 in 10.0 mi NW 15.0 mph 23.0 mph N/A   Scattered Clouds
4:53 PM 86.0 °F 86.1 °F 61.0 °F 43% 29.76 in 10.0 mi NNW 12.7 mph 21.9 mph N/A   Clear
5:53 PM 87.1 °F 86.5 °F 59.0 °F 39% 29.78 in 10.0 mi NW 9.2 mph - N/A   Clear
6:53 PM 84.9 °F 84.8 °F 60.1 °F 43% 29.79 in 10.0 mi NW 11.5 mph - N/A   Clear
7:53 PM 82.9 °F 83.3 °F 61.0 °F 47% 29.82 in 10.0 mi NNW 8.1 mph 18.4 mph N/A   Clear
8:53 PM 80.1 °F 81.2 °F 62.1 °F 54% 29.84 in 10.0 mi NW 9.2 mph - N/A   Clear
9:53 PM 77.0 °F - 63.0 °F 62% 29.87 in 10.0 mi Calm Calm - N/A   Clear
10:53 PM 73.9 °F - 64.0 °F 71% 29.88 in 10.0 mi Calm Calm - N/A   Clear
11:53 PM 75.0 °F - 64.0 °F 69% 29.89 in 10.0 mi WNW 4.6 mph - N/A   Clear